Weather History for KLRU - April, 2014

Change the Weather History Date:

Friday, April 11, 2014

  Actual Average (WUND) Record (WUND)
Temperature  
Mean Temperature 64 °F -  
Max Temperature 82 °F - - (-1)
Min Temperature 47 °F - - (-1)
Growing Degree Days 14 (Base 50)    
Moisture  
Dew Point 5 °F    
Average Humidity 9    
Maximum Humidity 16    
Minimum Humidity 5    
Precipitation  
Precipitation 0.00 in - - ()
Sea Level Pressure  
Sea Level Pressure 30.06 in    
Wind  
Wind Speed 6 mph (West)    
Max Wind Speed 21 mph    
Max Gust Speed 30 mph    
Visibility 10 miles    
Events      
Averages and records for this station are not official NWS values.
T = Trace of Precipitation, MM = Missing Value Source: NWS Daily Summary

Daily Weather History Graph

Daily Weather History Graph

Search for Another Location

Airport or City:

Trip Planner

Search our weather history database for the weather conditions in past years. The results will help you decide how hot, cold, wet, or windy it might be!

Date:

Astronomy

Apr. 11, 2014 Rise Set
Actual Time 6:43 AM MDT 7:34 PM MDT
Civil Twilight 6:18 AM MDT 7:59 PM MDT
Nautical Twilight 5:48 AM MDT 8:29 PM MDT
Astronomical Twilight 5:18 AM MDT 8:59 PM MDT
Moon 4:28 PM MDT (4/11) 4:27 AM MDT (4/11)
Length of Visible Light 13h 41m
Length of Day
12h 51m
Waxing Gibbous, 87% of the Moon is Illuminated
Apr 11
Waxing Gibbous
Apr 15
Full
Apr 22
Last Quarter
Apr 29
New
May 6
First Quarter

Hourly Weather History & Observations

Time (MDT) Temp. Dew Point Humidity Pressure Visibility Wind Dir Wind Speed Gust Speed Precip Events Conditions
12:15 AM 62.4 °F -2.2 °F 7% 30.07 in 10.0 mi NW 10.4 mph - N/A   Clear
12:35 AM 61.5 °F -2.2 °F 8% 30.07 in 10.0 mi North 10.4 mph - N/A   Clear
12:55 AM 64.9 °F -2.2 °F 7% 30.08 in 10.0 mi NNE 4.6 mph - N/A   Clear
1:15 AM 64.2 °F -2.2 °F 7% 30.07 in 10.0 mi ENE 5.8 mph - N/A   Clear
1:35 AM 60.8 °F -2.7 °F 8% 30.07 in 10.0 mi Calm Calm - N/A   Clear
1:55 AM 55.0 °F -4.0 °F 9% 30.07 in 10.0 mi Calm Calm - N/A   Clear
2:15 AM 54.7 °F -3.8 °F 9% 30.07 in 10.0 mi West 3.5 mph - N/A   Clear
2:35 AM 54.0 °F -4.2 °F 9% 30.07 in 10.0 mi WNW 4.6 mph - N/A   Clear
2:55 AM 54.0 °F -3.8 °F 9% 30.07 in 10.0 mi WNW 4.6 mph - N/A   Clear
3:15 AM 53.8 °F -4.0 °F 9% 30.07 in 10.0 mi WNW 5.8 mph - N/A   Clear
3:35 AM 54.9 °F -3.6 °F 9% 30.07 in 10.0 mi NW 6.9 mph - N/A   Clear
3:55 AM 53.2 °F -3.8 °F 10% 30.06 in 10.0 mi NW 4.6 mph - N/A   Clear
4:15 AM 51.8 °F -3.6 °F 10% 30.07 in 10.0 mi North 5.8 mph - N/A   Clear
4:35 AM 57.9 °F -2.6 °F 9% 30.07 in 10.0 mi Calm Calm - N/A   Clear
4:55 AM 53.8 °F -3.5 °F 10% 30.07 in 10.0 mi NW 4.6 mph - N/A   Clear
5:15 AM 52.7 °F -3.6 °F 10% 30.08 in 10.0 mi NW 4.6 mph - N/A   Clear
5:35 AM 48.2 °F -4.7 °F 11% 30.08 in 10.0 mi West 5.8 mph - N/A   Clear
5:55 AM 48.9 °F -4.7 °F 11% 30.09 in 10.0 mi WNW 4.6 mph - N/A   Clear
6:15 AM 47.5 °F -4.7 °F 11% 30.09 in 10.0 mi NW 4.6 mph - N/A   Clear
6:35 AM 48.6 °F -4.4 °F 11% 30.09 in 10.0 mi North 4.6 mph - N/A   Clear
6:55 AM 49.5 °F -4.0 °F 11% 30.09 in 10.0 mi North 3.5 mph - N/A   Clear
7:15 AM 50.0 °F -4.0 °F 11% 30.10 in 10.0 mi Calm Calm - N/A   Clear
7:35 AM 53.1 °F -2.4 °F 10% 30.11 in 10.0 mi ENE 4.6 mph - N/A   Clear
8:15 AM 62.4 °F 0.1 °F 8% 30.12 in 10.0 mi Calm Calm - N/A   Clear
8:35 AM 64.8 °F 1.2 °F 8% 30.12 in 10.0 mi Calm Calm - N/A   Clear
8:55 AM 66.6 °F 0.7 °F 7% 30.13 in 10.0 mi SW 3.5 mph - N/A   Clear
9:15 AM 68.2 °F 0.9 °F 7% 30.13 in 10.0 mi WSW 3.5 mph - N/A   Clear
9:35 AM 70.0 °F 0.5 °F 6% 30.13 in 10.0 mi Calm Calm - N/A   Clear
9:55 AM 71.6 °F 1.2 °F 6% 30.14 in 10.0 mi Calm Calm - N/A   Clear
10:15 AM 72.9 °F 1.6 °F 6% 30.15 in 10.0 mi Calm Calm - N/A   Clear
10:35 AM 74.7 °F 1.8 °F 6% 30.15 in 10.0 mi Calm Calm - N/A   Clear
10:55 AM 75.4 °F 1.4 °F 6% 30.15 in 10.0 mi Calm Calm - N/A   Clear
11:15 AM 76.6 °F 1.6 °F 5% 30.14 in 10.0 mi SW 3.5 mph - N/A   Clear
11:35 AM 76.6 °F 0.5 °F 5% 30.14 in 10.0 mi SSW 3.5 mph - N/A   Clear
11:55 AM 77.5 °F 0.9 °F 5% 30.14 in 10.0 mi WSW 3.5 mph - N/A   Clear
12:15 PM 79.0 °F 1.0 °F 5% 30.12 in 10.0 mi South 3.5 mph - N/A   Clear
12:35 PM 79.9 °F 1.4 °F 5% 30.12 in 10.0 mi SSW 8.1 mph - N/A   Clear
12:55 PM 80.8 °F 1.8 °F 5% 30.11 in 10.0 mi WSW 10.4 mph - N/A   Clear
1:15 PM 79.9 °F 3.2 °F 5% 30.10 in 10.0 mi WSW 9.2 mph 16.1 mph N/A   Scattered Clouds
1:35 PM 79.2 °F 13.8 °F 8% 30.10 in 10.0 mi West 11.5 mph 26.5 mph N/A   Scattered Clouds
1:55 PM 81.3 °F 15.6 °F 9% 30.08 in 10.0 mi West 15.0 mph 29.9 mph N/A   Scattered Clouds
2:15 PM 82.2 °F 7.9 °F 6% 30.08 in 10.0 mi WSW 10.4 mph - N/A   Clear
2:30 PM 81.3 °F 5.2 °F 5% 30.07 in 10.0 mi WSW 12.7 mph 17.3 mph N/A   Clear
2:55 PM 81.3 °F 6.6 °F 6% 30.06 in 10.0 mi West 10.4 mph 25.3 mph N/A   Clear
3:15 PM 81.5 °F 12.0 °F 7% 30.04 in 10.0 mi WNW 11.5 mph 23.0 mph N/A   Clear
3:35 PM 80.1 °F 11.8 °F 8% 30.03 in 10.0 mi West 8.1 mph - N/A   Clear
3:55 PM 82.0 °F 13.6 °F 8% 30.03 in 10.0 mi WSW 13.8 mph 21.9 mph N/A   Clear
4:15 PM 81.7 °F 13.1 °F 8% 30.03 in 10.0 mi West 8.1 mph 17.3 mph N/A   Clear
4:35 PM 82.2 °F 15.6 °F 8% 30.02 in 10.0 mi WSW 13.8 mph 27.6 mph N/A   Clear
4:55 PM 81.5 °F 16.7 °F 9% 30.02 in 10.0 mi WSW 20.7 mph 26.5 mph N/A   Clear
5:15 PM 81.5 °F 16.9 °F 9% 30.01 in 10.0 mi West 15.0 mph 26.5 mph N/A   Clear
5:35 PM 81.5 °F 16.3 °F 9% 30.01 in 10.0 mi West 16.1 mph 26.5 mph N/A   Clear
5:55 PM 81.0 °F 16.7 °F 9% 30.00 in 10.0 mi West 17.3 mph 23.0 mph N/A   Clear
6:15 PM 80.4 °F 16.5 °F 9% 30.00 in 10.0 mi SW 4.6 mph - N/A   Clear
6:35 PM 80.2 °F 16.5 °F 9% 30.00 in 10.0 mi WSW 10.4 mph 17.3 mph N/A   Clear
6:55 PM 78.8 °F 16.2 °F 9% 30.00 in 10.0 mi WSW 8.1 mph - N/A   Clear
7:15 PM 77.2 °F 15.6 °F 10% 30.00 in 10.0 mi West 8.1 mph - N/A   Clear
7:35 PM 73.9 °F 14.9 °F 11% 30.00 in 10.0 mi WSW 5.8 mph - N/A   Clear
7:55 PM 71.4 °F 14.0 °F 11% 30.00 in 10.0 mi WSW 5.8 mph - N/A   Clear
8:15 PM 70.0 °F 13.8 °F 12% 30.00 in 10.0 mi WSW 5.8 mph - N/A   Clear
8:35 PM 68.2 °F 13.5 °F 12% 30.00 in 10.0 mi WSW 5.8 mph - N/A   Clear
8:55 PM 66.9 °F 13.1 °F 12% 30.01 in 10.0 mi WSW 6.9 mph - N/A   Clear
9:15 PM 65.3 °F 12.7 °F 13% 30.02 in 10.0 mi WSW 8.1 mph - N/A   Clear
9:35 PM 64.4 °F 12.6 °F 13% 30.02 in 10.0 mi WSW 8.1 mph - N/A   Clear
9:55 PM 63.5 °F 12.2 °F 14% 30.02 in 10.0 mi West 8.1 mph - N/A   Clear
10:15 PM 62.8 °F 12.6 °F 14% 30.02 in 10.0 mi West 9.2 mph - N/A   Clear
10:35 PM 62.8 °F 12.9 °F 14% 30.01 in 10.0 mi WSW 9.2 mph - N/A   Clear
10:55 PM 63.1 °F 13.3 °F 14% 30.01 in 10.0 mi WSW 9.2 mph - N/A   Clear
11:15 PM 62.8 °F 13.5 °F 15% 30.01 in 10.0 mi West 9.2 mph - N/A   Clear
11:35 PM 62.6 °F 13.8 °F 15% 30.00 in 10.0 mi West 8.1 mph - N/A   Clear
11:55 PM 61.0 °F 13.5 °F 16% 30.00 in 10.0 mi WSW 6.9 mph - N/A   Clear